Stations météo

réclame
Mon MeteoGroup
Eindhoven, Pays-Bas (6370): Température de l'air & dewpoint: 16.10.2018 16:00:00 - 22.10.2018 16:00:00 (CEST)Eindhoven, Pays-Bas (6370): Température de l'air 5cm: 16.10.2018 16:00:00 - 22.10.2018 16:00:00 (CEST)Eindhoven, Pays-Bas (6370): Vitesse du vent & gusts: 16.10.2018 16:00:00 - 22.10.2018 16:00:00 (CEST)Eindhoven, Pays-Bas (6370): Direction du vent: 16.10.2018 16:00:00 - 22.10.2018 16:00:00 (CEST)Eindhoven, Pays-Bas (6370): reduced air pressure: 16.10.2018 16:00:00 - 22.10.2018 16:00:00 (CEST)Eindhoven, Pays-Bas (6370): visibility: 16.10.2018 16:00:00 - 22.10.2018 16:00:00 (CEST)Eindhoven, Pays-Bas (6370): Quantités de précipitations: 16.10.2018 16:00:00 - 22.10.2018 16:00:00 (CEST)
Date & Time tt [°C] td [°C] tt 5cm [°C] ff [km/h] ff [knt] fx [km/h] fx [knt] dd ppp [hPa] vv [km] rr [mm]
22.10.2018 16:00:00 15,4 5,5 16,0 16 9 32 18 NNE 1032,8 10 0,0
22.10.2018 15:00:00 15,6 4,7 17,6 18 10 32 18 N 1032,9 10 0,0
22.10.2018 14:00:00 16,0 5,7 17,7 22 12 36 19 NNE 1032,6 10 0,0
22.10.2018 13:00:00 14,9 7,6 16,8 26 14 36 19 NNE 1032,8 10 0,0
22.10.2018 12:00:00 14,7 9,8 14,8 22 12 32 18 N 1032,5 10 0,0
22.10.2018 11:00:00 12,8 10,1 12,6 18 10 36 19 NNW 1032,3 10 0,0
22.10.2018 10:00:00 12,7 10,5 12,4 16 9 22 12 N 1031,4 10 0,0
22.10.2018 09:00:00 12,4 10,9 12,0 15 8 32 18 N 1030,3 10 0,0
22.10.2018 08:00:00 12,5 11,6 12,3 21 11 36 19 N 1029,1 10 0,1
22.10.2018 07:00:00 13,0 12,2 12,9 16 9 22 12 N 1028,2 4,0 0,0
22.10.2018 06:00:00 12,4 10,5 11,4 8 4 14 8 NNW 1027,6 6 0,0
22.10.2018 05:00:00 11,0 8,6 9,4 4 2 11 6 W 1027,3 8 0,0
22.10.2018 04:00:00 9,3 7,4 8,2 5 3 7 4 SW 1027,1 9 0,0
22.10.2018 03:00:00 8,9 7,2 6,4 4 2 4 2 - 1027,0 9 0,0
22.10.2018 02:00:00 9,7 7,5 8,3 4 2 4 2 S 1027,0 10 0,0
22.10.2018 01:00:00 9,2 7,4 6,7 4 2 7 4 SW 1027,2 10 0,0
22.10.2018 00:00:00 9,8 7,5 8,1 4 2 4 2 - 1027,1 10 0,0
21.10.2018 23:00:00 11,3 8,5 11,0 4 2 7 4 - 1026,9 10 0,0
21.10.2018 22:00:00 11,3 8,2 10,6 2 1 4 2 SW 1027,0 10 0,0
21.10.2018 21:00:00 10,0 7,4 7,6 5 3 7 4 SSE 1026,6 10 0,0
21.10.2018 20:00:00 9,3 6,9 5,0 2 1 4 2 SSW 1026,7 10 0,0
21.10.2018 19:00:00 11,5 7,2 7,4 2 1 7 4 SW 1026,8 10 0,0
21.10.2018 18:00:00 15,3 7,8 15,8 5 3 11 6 SW 1026,7 10 0,0
21.10.2018 17:00:00 16,9 5,8 17,8 5 3 14 8 S 1026,9 10 0,0
21.10.2018 16:00:00 17,0 6,0 18,7 8 4 14 8 - 1027,3 10 0,0
21.10.2018 15:00:00 16,7 6,9 19,8 5 3 14 8 - 1027,8 10 0,0
21.10.2018 14:00:00 15,3 6,6 17,8 4 2 11 6 - 1028,4 10 0,0
21.10.2018 13:00:00 14,2 6,3 16,4 5 3 11 6 SSE 1029,2 10 0,0
21.10.2018 12:00:00 13,3 6,4 15,5 5 3 11 6 S 1029,7 10 0,0
21.10.2018 11:00:00 11,1 7,1 11,8 2 1 7 4 - 1029,9 9 0,0
21.10.2018 10:00:00 8,7 6,5 8,9 4 2 4 2 - 1029,8 7 0,0
21.10.2018 09:00:00 7,1 6,0 6,7 4 2 4 2 - 1029,5 4,3 0,0
21.10.2018 08:00:00 5,8 5,0 4,0 4 2 7 4 - 1029,2 5 0,0
21.10.2018 07:00:00 5,9 5,3 5,2 4 2 7 4 - 1029,4 4,7 0,0
21.10.2018 06:00:00 3,3 2,7 0,4 2 1 4 2 SSW 1029,8 4,7 0,0
21.10.2018 05:00:00 3,0 2,8 -0,2 2 1 4 2 SSW 1030,0 8 0,0
21.10.2018 04:00:00 3,2 2,6 0,1 2 1 4 2 SSW 1030,1 4,7 0,0
21.10.2018 03:00:00 3,5 3,1 -0,3 2 1 4 2 SSW 1030,5 5 0,0
21.10.2018 02:00:00 3,4 3,2 -0,1 4 2 4 2 SSW 1030,9 2,8 0,0
21.10.2018 01:00:00 4,4 4,1 0,1 2 1 7 4 SW 1031,0 4,0 0,0
21.10.2018 00:00:00 4,8 4,5 0,2 0 0 4 2 N 1031,2 7 0,0
20.10.2018 23:00:00 5,0 4,4 0,3 2 1 4 2 - 1031,3 10 0,0
20.10.2018 22:00:00 5,1 4,7 0,1 2 1 4 2 N 1031,6 4,5 0,0
20.10.2018 21:00:00 6,1 5,6 1,2 4 2 4 2 SSW 1031,1 8 0,0
20.10.2018 20:00:00 7,8 6,3 2,8 4 2 7 4 SW 1031,2 10 0,0
20.10.2018 19:00:00 10,0 7,3 5,6 2 1 7 4 NNW 1031,2 10 0,0
20.10.2018 18:00:00 13,6 7,3 12,7 9 5 14 8 N 1031,0 10 0,0
20.10.2018 17:00:00 14,9 7,0 15,4 13 7 18 10 N 1031,0 10 0,0
20.10.2018 16:00:00 15,1 6,3 16,0 4 2 11 6 - 1031,1 10 0,0
20.10.2018 15:00:00 15,5 6,1 17,2 5 3 14 8 - 1031,3 10 0,0
20.10.2018 14:00:00 14,9 5,7 17,2 5 3 11 6 - 1031,8 10 0,0
20.10.2018 13:00:00 13,9 6,0 15,5 4 2 11 6 - 1032,2 10 0,0
20.10.2018 12:00:00 12,9 6,0 15,9 5 3 11 6 SE 1031,8 10 0,0
20.10.2018 11:00:00 10,4 7,9 10,4 0 0 4 2 N 1032,2 7 0,0
20.10.2018 10:00:00 6,0 5,7 6,5 2 1 4 2 - 1031,6 4,6 0,0
20.10.2018 09:00:00 2,9 2,8 -0,4 2 1 4 2 - 1030,7 4,0 0,0
20.10.2018 08:00:00 2,0 1,8 -1,3 0 0 4 2 N 1030,3 0,5 0,0
20.10.2018 07:00:00 2,1 1,6 -1,5 2 1 4 2 - 1029,9 7 0,0
20.10.2018 06:00:00 2,9 2,7 -1,7 0 0 4 2 N 1029,3 1,9 0,0
20.10.2018 05:00:00 3,4 3,2 -1,5 2 1 4 2 W 1028,7 4,1 0,0
20.10.2018 04:00:00 5,0 4,7 -0,7 0 0 7 4 N 1028,7 4,1 0,0
20.10.2018 03:00:00 4,4 4,0 0,1 5 3 11 6 NNW 1028,7 5 0,0
20.10.2018 02:00:00 5,4 5,0 0,8 2 1 7 4 W 1028,1 8 0,0
20.10.2018 01:00:00 7,0 6,5 2,7 4 2 7 4 NNE 1027,9 7 0,0
20.10.2018 00:00:00 6,8 6,0 2,0 4 2 7 4 N 1027,6 7 0,0
19.10.2018 23:00:00 7,9 6,6 1,9 4 2 7 4 - 1027,4 10 0,0
19.10.2018 22:00:00 8,7 6,9 4,9 8 4 11 6 N 1026,8 10 0,0
19.10.2018 21:00:00 11,1 8,2 10,2 9 5 11 6 NNW 1026,3 10 0,0
19.10.2018 20:00:00 9,6 6,9 5,6 5 3 14 8 NNE 1025,8 10 0,0
19.10.2018 19:00:00 13,0 8,5 11,2 9 5 14 8 N 1025,2 10 0,0
19.10.2018 18:00:00 14,6 8,8 13,8 9 5 29 16 NNW 1024,4 10 0,0
19.10.2018 17:00:00 16,4 8,5 17,0 8 4 18 10 N 1024,2 10 0,0
19.10.2018 16:00:00 16,4 8,3 17,3 8 4 18 10 - 1024,2 10 0,0
19.10.2018 15:00:00 16,2 8,5 19,2 5 3 18 10 ENE 1024,4 10 0,0
19.10.2018 14:00:00 16,0 9,3 18,6 5 3 14 8 - 1024,8 10 0,0
19.10.2018 13:00:00 14,3 9,3 16,1 8 4 14 8 E 1025,1 10 0,0
19.10.2018 12:00:00 12,6 8,6 14,6 9 5 14 8 E 1025,4 10 0,0
19.10.2018 11:00:00 11,7 8,2 12,5 9 5 18 10 ENE 1025,4 10 0,0
19.10.2018 10:00:00 10,4 7,5 10,5 11 6 18 10 NE 1025,3 10 0,0
19.10.2018 09:00:00 9,5 7,1 9,4 11 6 14 8 NE 1025,2 10 0,0
19.10.2018 08:00:00 9,5 6,7 9,2 9 5 14 8 NE 1025,0 10 0,0
19.10.2018 07:00:00 9,6 6,8 9,4 11 6 18 10 NE 1025,0 10 0,0
19.10.2018 06:00:00 9,9 6,9 9,7 15 8 22 12 NE 1024,9 10 0,0
19.10.2018 05:00:00 9,9 7,1 9,8 11 6 25 14 NE 1024,8 10 0,0
19.10.2018 04:00:00 10,3 7,4 10,2 15 8 25 14 NE 1024,7 10 0,0
19.10.2018 03:00:00 10,7 7,4 10,4 16 9 25 14 NE 1024,7 10 0,0
19.10.2018 02:00:00 11,6 7,6 11,4 15 8 25 14 NE 1024,9 10 0,0
19.10.2018 01:00:00 12,3 7,7 12,0 16 9 25 14 NE 1025,2 10 0,0
19.10.2018 00:00:00 12,9 7,9 12,4 18 10 29 16 NE 1025,2 10 0,0
18.10.2018 23:00:00 13,7 8,0 13,2 15 8 25 14 NE 1025,3 10 0,0
18.10.2018 22:00:00 13,8 8,2 13,4 16 9 25 14 NNE 1025,3 10 0,0
18.10.2018 21:00:00 13,8 8,9 13,5 15 8 22 12 NNE 1025,0 10 0,0
18.10.2018 20:00:00 14,3 9,1 13,9 15 8 22 12 N 1024,6 10 0,0
18.10.2018 19:00:00 14,4 9,6 13,9 9 5 14 8 N 1024,4 10 0,0
18.10.2018 18:00:00 15,2 10,1 14,9 9 5 18 10 N 1024,2 10 0,0
18.10.2018 17:00:00 15,6 9,7 15,6 11 6 22 12 NNE 1024,2 10 0,0
18.10.2018 16:00:00 15,8 10,4 15,9 11 6 22 12 NNE 1024,5 10 0,0
18.10.2018 15:00:00 15,5 10,3 15,8 16 9 22 12 NNE 1024,6 10 0,0
18.10.2018 14:00:00 15,5 11,1 15,9 16 9 25 14 NNE 1024,5 10 0,0
18.10.2018 13:00:00 15,1 11,5 15,6 18 10 29 16 NNE 1024,9 10 0,0
18.10.2018 12:00:00 14,5 11,9 14,9 13 7 25 14 NNE 1024,8 10 0,0
18.10.2018 11:00:00 13,8 12,0 13,8 18 10 25 14 NNE 1024,6 10 0,0
18.10.2018 10:00:00 13,5 12,5 13,1 13 7 18 10 N 1024,3 6 0,0
18.10.2018 09:00:00 11,6 11,3 10,6 8 4 7 4 N 1023,8 3,9 0,0
18.10.2018 08:00:00 10,5 10,2 7,6 4 2 7 4 - 1023,5 1,1 0,0
18.10.2018 07:00:00 9,0 8,6 3,8 5 3 7 4 N 1023,1 0,9 0,0
18.10.2018 06:00:00 10,4 10,2 7,4 4 2 11 6 N 1022,7 2,1 0,0
18.10.2018 05:00:00 11,9 11,1 10,8 9 5 14 8 N 1022,6 5 0,0
18.10.2018 04:00:00 12,4 11,5 12,0 9 5 14 8 N 1022,5 5 0,0
18.10.2018 03:00:00 12,7 11,5 12,4 9 5 14 8 NNW 1022,6 5 0,0
18.10.2018 02:00:00 12,3 11,3 11,7 8 4 11 6 NNW 1022,2 6 0,0
18.10.2018 01:00:00 11,1 10,6 7,2 4 2 7 4 NNW 1022,1 6 0,0
18.10.2018 00:00:00 11,5 11,1 8,1 4 2 7 4 - 1021,9 8 0,0
17.10.2018 23:00:00 12,5 11,3 10,0 5 3 7 4 NNW 1021,6 9 0,0
17.10.2018 22:00:00 13,3 11,8 11,1 5 3 11 6 NNW 1021,4 10 0,0
17.10.2018 21:00:00 14,3 12,0 13,2 9 5 14 8 NNW 1020,8 10 0,0
17.10.2018 20:00:00 15,1 12,4 13,7 13 7 18 10 NNW 1020,4 10 0,0
17.10.2018 19:00:00 15,7 12,4 13,1 5 3 11 6 NNW 1019,8 10 0,0
17.10.2018 18:00:00 17,9 12,7 17,1 9 5 25 14 NNW 1019,4 10 0,0
17.10.2018 17:00:00 20,1 12,8 20,8 9 5 18 10 NW 1019,2 10 0,0
17.10.2018 16:00:00 20,0 13,0 21,5 8 4 14 8 N 1019,0 10 0,0
17.10.2018 15:00:00 19,4 13,4 21,0 8 4 18 10 - 1019,1 10 0,0
17.10.2018 14:00:00 19,8 13,2 22,1 5 3 14 8 - 1019,1 10 0,0
17.10.2018 13:00:00 18,4 13,3 20,3 8 4 14 8 N 1019,5 10 0,0
17.10.2018 12:00:00 17,2 13,7 18,7 9 5 14 8 NW 1019,8 10 0,0
17.10.2018 11:00:00 16,2 13,6 17,0 8 4 11 6 W 1019,6 6 0,0
17.10.2018 10:00:00 13,5 12,2 12,7 4 2 11 6 WSW 1019,3 4,2 0,0
17.10.2018 09:00:00 9,9 9,7 6,7 4 2 7 4 SW 1019,1 3,3 0,0
17.10.2018 08:00:00 9,8 9,1 5,8 5 3 11 6 WSW 1018,7 5 0,0
17.10.2018 07:00:00 9,3 8,6 6,1 4 2 7 4 SSE 1018,3 7 0,0
17.10.2018 06:00:00 9,7 8,8 6,2 2 1 7 4 SSW 1018,3 9 0,0
17.10.2018 05:00:00 10,4 8,9 7,2 5 3 7 4 S 1018,1 10 0,0
17.10.2018 04:00:00 12,3 9,5 9,4 9 5 18 10 WSW 1018,0 10 0,0
17.10.2018 03:00:00 12,6 9,4 8,1 5 3 7 4 SSW 1017,9 10 0,0
17.10.2018 02:00:00 14,8 9,8 9,9 2 1 11 6 SSE 1018,0 10 0,0
17.10.2018 01:00:00 14,2 9,9 11,6 8 4 14 8 S 1017,9 10 0,0
17.10.2018 00:00:00 14,6 10,0 10,6 11 6 14 8 SE 1018,1 10 0,0
16.10.2018 23:00:00 13,7 9,2 9,0 5 3 11 6 SSE 1018,4 10 0,0
16.10.2018 22:00:00 16,4 10,1 9,7 5 3 11 6 SSE 1018,4 10 0,0
16.10.2018 21:00:00 15,6 10,9 9,6 8 4 11 6 SE 1018,4 10 0,0
16.10.2018 20:00:00 17,1 11,0 10,9 8 4 11 6 SE 1018,3 10 0,0
16.10.2018 19:00:00 19,6 10,9 15,1 4 2 11 6 - 1018,1 10 0,0
16.10.2018 18:00:00 22,5 9,7 20,7 9 5 14 8 SE 1017,9 10 0,0
16.10.2018 17:00:00 24,3 9,1 24,3 11 6 18 10 - 1017,9 10 0,0
16.10.2018 16:00:00 25,5 8,3 27,8 11 6 18 10 SE 1017,9 10 0,0

tt = Température de l'air
td = dewpoint
tt 5cm = Température de l'air 5cm
ff = Vitesse du vent
fx = gusts
dd = Direction du vent
ppp = reduced air pressure
vv = visibility
rr = Quantités de précipitations

stations d'obs. à proximité